[[{"header":{"parameterUnit":"m.s-1","parameterCategory":1,"la1":30.2992,"la2":30.254,"lo1":-89.0895,"lo2":-89.0443,"dy":0.0025,"dx":0.0025,"nx":19,"ny":19,"refTime":"2026-03-18T21:00:00:Z","depth":0,"parameterNumber":2,"parameterNumberName":"U-component_of_WINDS"},"data":[0,0,0,1.4683,1.4685,1.477,1.477,1.4864,1.4864,0,0,0,0,0,0,0,0,0,0,0,1.4651,1.4652,1.4683,1.4685,1.477,1.477,1.4863,1.4864,0,0,0,0,0,0,0,0,0,0,0,1.4651,1.4652,1.4652,1.4685,1.477,1.477,1.4863,1.4804,0,0,0,0,0,0,0,0,0,0,1.4724,1.4689,1.4652,1.4652,1.4686,1.4769,1.477,1.4801,1.4808,1.4819,0,1.483,0,1.4849,1.487,1.487,0,0,0,1.4689,1.4684,1.4713,1.4652,1.4686,1.4769,1.4733,1.4805,1.4812,1.4828,1.4832,1.4836,1.485,1.487,1.4871,1.4928,1.4928,0,0,1.4684,1.4663,1.4708,1.4717,1.4706,1.473,1.4735,1.481,1.4812,1.4832,1.4838,1.4852,1.4871,1.4872,1.4928,1.4928,0,0,0,1.4668,1.4659,1.4687,1.4713,1.4729,1.4732,1.4738,1.4809,1.4819,1.4839,1.4853,1.4871,1.4872,1.4928,1.4928,1.491,0,0,0,1.4665,1.465,1.4684,1.4672,1.4728,1.4771,1.4735,1.4814,1.4823,1.4853,1.4871,1.4873,1.4928,1.4928,1.4911,1.4905,0,0,0,1.4648,1.4648,1.4658,1.4671,1.4707,1.477,1.4785,1.4817,1.4831,1.487,1.4873,1.4928,1.4928,1.4911,1.4906,1.4913,0,0,0,1.4623,1.4642,1.4658,1.4683,1.4706,1.4759,1.4785,1.4825,1.4857,1.4872,1.4928,1.4928,1.4911,1.4907,1.4914,1.4915,1.4915,0,0,1.4634,1.4642,1.4659,1.4676,1.4721,1.4748,1.4789,1.4838,1.486,1.4903,1.4905,1.4911,1.4906,1.4913,1.4917,1.4916,0,0,0,1.4655,1.4667,1.4684,1.4713,1.475,1.4781,1.4826,1.4843,1.4881,1.4879,1.4916,1.4914,1.4919,1.4921,1.492,1.4925,1.4928,1.4928,1.4928,1.4641,1.4669,1.4698,1.4735,1.4763,1.4807,1.4831,1.4862,1.4883,1.489,1.4904,1.4902,1.4904,1.4903,1.4908,1.4907,1.4907,1.4907,1.4907,1.466,1.468,1.4706,1.4743,1.4771,1.4802,1.4844,1.4857,1.4888,1.4895,1.4901,1.4907,1.4901,1.4907,1.4906,1.4906,1.4906,1.4906,1.4906,1.4653,1.4668,1.4689,1.4732,1.4761,1.4797,1.4826,1.4851,1.4874,1.488,1.4895,1.4895,1.4898,1.4885,1.4885,1.4885,1.4885,1.4885,1.4885,1.4638,1.4662,1.4684,1.4724,1.4744,1.4774,1.4817,1.4837,1.4865,1.4881,1.4881,1.4899,1.4896,1.4894,1.4885,1.4885,1.4885,1.4885,1.4885,1.4646,1.4648,1.4681,1.4702,1.4749,1.4775,1.4805,1.4843,1.4864,1.4876,1.4892,1.4887,1.4896,1.4897,1.4896,1.4887,1.4887,1.4887,1.4887,1.464,1.4647,1.4686,1.4716,1.4749,1.4779,1.4813,1.4845,1.4878,1.4891,1.4896,1.4896,1.4896,1.4906,1.4906,1.4905,1.49,1.49,1.49,1.4646,1.4657,1.4682,1.4716,1.4753,1.4784,1.4816,1.4848,1.4886,1.4901,1.4902,1.4901,1.4902,1.4901,1.4917,1.4918,1.4917,0,0]},{"header":{"parameterUnit":"m.s-1","parameterCategory":1,"la1":30.2992,"la2":30.254,"lo1":-89.0895,"lo2":-89.0443,"dy":0.0025,"dx":0.0025,"nx":19,"ny":19,"refTime":"2026-03-18T21:00:00:Z","depth":0,"parameterNumber":3,"parameterNumberName":"V-component_of_WINDS"},"data":[0,0,0,1.2149,1.2149,1.2125,1.2125,1.2105,1.2105,0,0,0,0,0,0,0,0,0,0,0,1.2164,1.2164,1.2149,1.2149,1.2125,1.2125,1.2105,1.2105,0,0,0,0,0,0,0,0,0,0,0,1.2164,1.2164,1.2164,1.2149,1.2125,1.2125,1.2105,1.2119,0,0,0,0,0,0,0,0,0,0,1.214,1.2162,1.2164,1.2164,1.2149,1.2125,1.2125,1.2119,1.2118,1.2121,0,1.2127,0,1.2116,1.2104,1.2104,0,0,0,1.2143,1.2164,1.215,1.2165,1.2148,1.2125,1.2134,1.2119,1.2117,1.2119,1.2126,1.2125,1.2115,1.2104,1.2104,1.2142,1.2143,0,0,1.2144,1.2164,1.2151,1.2149,1.2155,1.2135,1.2133,1.2117,1.2126,1.2126,1.2125,1.2115,1.2104,1.2104,1.2142,1.2142,0,0,0,1.2152,1.2165,1.2152,1.215,1.2145,1.2134,1.2132,1.2127,1.2121,1.2124,1.2115,1.2104,1.2104,1.2141,1.2142,1.2184,0,0,0,1.2152,1.217,1.2153,1.2165,1.2146,1.2136,1.2143,1.2122,1.2119,1.2115,1.2104,1.2104,1.2141,1.2142,1.2182,1.2201,0,0,0,1.2163,1.2171,1.217,1.2166,1.2156,1.2136,1.2129,1.2121,1.2114,1.2104,1.2104,1.214,1.2141,1.218,1.2197,1.2215,0,0,0,1.218,1.2209,1.2171,1.22,1.2157,1.2162,1.2128,1.2132,1.2129,1.2104,1.2141,1.2142,1.2179,1.2195,1.2213,1.2234,1.2245,0,0,1.2228,1.2216,1.223,1.2196,1.2214,1.2164,1.2187,1.2166,1.2146,1.2144,1.2145,1.2182,1.2197,1.2215,1.2298,1.2307,0,0,0,1.2252,1.2263,1.2263,1.2261,1.2245,1.2232,1.2204,1.2196,1.2193,1.215,1.2194,1.2202,1.2211,1.222,1.2227,1.2233,1.2147,1.2147,1.2147,1.235,1.2322,1.2344,1.2314,1.2312,1.2282,1.2277,1.226,1.2234,1.2245,1.2244,1.2298,1.2309,1.2315,1.2321,1.2253,1.2253,1.2253,1.2253,1.2416,1.2427,1.2389,1.2398,1.2368,1.2374,1.2345,1.2326,1.2326,1.2297,1.2304,1.2274,1.2325,1.2329,1.2256,1.2256,1.2255,1.2255,1.2255,1.2476,1.2476,1.2465,1.2457,1.2454,1.2421,1.2423,1.2396,1.237,1.2377,1.2372,1.2372,1.2366,1.2377,1.2377,1.2377,1.2377,1.2378,1.2378,1.2543,1.2529,1.2534,1.2517,1.2511,1.2499,1.2467,1.2459,1.2444,1.2424,1.2424,1.2396,1.2335,1.232,1.238,1.238,1.238,1.2379,1.2379,1.262,1.2598,1.2606,1.2599,1.2576,1.2573,1.2538,1.2524,1.2514,1.2515,1.2484,1.2445,1.243,1.2424,1.2411,1.2491,1.2491,1.2491,1.2491,1.267,1.266,1.266,1.2651,1.2639,1.2608,1.2615,1.2589,1.2559,1.255,1.2535,1.2515,1.2511,1.2499,1.2491,1.2479,1.2574,1.2574,1.2574,1.2715,1.2702,1.2714,1.2685,1.2664,1.2646,1.2651,1.264,1.2602,1.2577,1.2542,1.2539,1.2508,1.2499,1.2475,1.2464,1.244,0,0]}]]